Location: Unspecified
(43.4354°N, 0.0000°E)
Time: 16:34:48
(UTC+00:00)

A-11 Canister half - Pass Details

Date: 29 June 2019
Orbit: 1514 x 1686 km, 47.2° (Epoch: 21 August)

Event Time Altitude Azimuth Distance (km) Brightness Sun altitude
Rises 12:56:25 0° 287° (WNW) 4,880 11.7 67.0°
Reaches altitude 10° 12:59:36 10° 288° (WNW) 3,871 11.3 66.7°
Maximum altitude 13:09:31 82° 17° (NNE) 1,607 10.4 65.6°
Drops below altitude 10° 13:19:01 10° 106° (ESE) 3,728 11.0 64.5°
Sets 13:22:01 0° 107° (ESE) 4,692 11.4 64.1°
